TimeCDT,TemperatureF,Dew PointF,Humidity,Sea Level PressureIn,VisibilityMPH,Wind Direction,Wind SpeedMPH,Gust SpeedMPH,PrecipitationIn,Events,Conditions,WindDirDegrees,DateUTC
12:58 AM,62.2,55.0,77,29.85,10.0,SE,6.9,-,N/A,,Scattered Clouds,140,2013-10-12 05:58:00
1:58 AM,63.7,55.2,74,29.84,10.0,SSE,6.9,-,N/A,,Scattered Clouds,150,2013-10-12 06:58:00
2:58 AM,61.7,56.7,84,29.84,10.0,SSE,6.9,-,N/A,,Scattered Clouds,150,2013-10-12 07:58:00
3:58 AM,59.2,55.6,88,29.83,10.0,SE,6.9,-,N/A,,Clear,140,2013-10-12 08:58:00
4:58 AM,61.0,55.4,82,29.84,10.0,SSE,6.9,-,N/A,,Partly Cloudy,160,2013-10-12 09:58:00
5:58 AM,61.0,55.8,83,29.82,10.0,South,11.5,-,N/A,,Scattered Clouds,180,2013-10-12 10:58:00
6:53 AM,60.8,55.4,82,29.85,10.0,South,9.2,-,N/A,,Mostly Cloudy,180,2013-10-12 11:53:00
6:58 AM,61.5,55.9,82,29.86,10.0,South,11.5,-,N/A,,Mostly Cloudy,170,2013-10-12 11:58:00
7:58 AM,62.6,56.7,81,29.88,10.0,South,5.8,-,N/A,,Mostly Cloudy,170,2013-10-12 12:58:00
8:58 AM,60.8,51.8,72,29.90,10.0,West,13.8,-,N/A,,Overcast,280,2013-10-12 13:58:00
9:43 AM,59.0,51.8,77,29.90,10.0,West,9.2,-,N/A,,Mostly Cloudy,280,2013-10-12 14:43:00
9:58 AM,59.0,50.0,72,29.92,10.0,West,9.2,-,N/A,,Mostly Cloudy,280,2013-10-12 14:58:00
10:58 AM,62.6,48.2,59,29.93,10.0,West,12.7,-,N/A,,Scattered Clouds,260,2013-10-12 15:58:00
11:58 AM,64.4,46.4,52,29.94,10.0,SW,12.7,19.6,N/A,,Partly Cloudy,230,2013-10-12 16:58:00
12:58 PM,64.4,44.6,49,29.95,10.0,SW,12.7,19.6,N/A,,Partly Cloudy,230,2013-10-12 17:58:00
1:58 PM,64.4,42.8,45,29.95,10.0,WSW,13.8,20.7,N/A,,Partly Cloudy,240,2013-10-12 18:58:00
2:58 PM,64.4,42.8,45,29.96,10.0,WSW,13.8,-,N/A,,Partly Cloudy,250,2013-10-12 19:58:00
3:58 PM,64.0,41.2,43,29.98,10.0,West,17.3,26.5,N/A,,Partly Cloudy,260,2013-10-12 20:58:00
4:58 PM,60.3,39.7,47,30.02,10.0,West,17.3,-,N/A,,Partly Cloudy,270,2013-10-12 21:58:00
9:58 PM,44.1,35.8,73,30.13,10.0,WSW,2.3,-,N/A,,Clear,240,2013-10-13 02:58:00
10:58 PM,38.5,34.7,86,30.16,10.0,West,3.5,-,N/A,,Clear,260,2013-10-13 03:58:00
11:58 PM,37.8,35.6,92,30.19,10.0,SW,5.8,-,N/A,,Clear,230,2013-10-13 04:58:00